DW8248 Weather Reports


time (UTC)temp
F
wind
direction
speed
knots
gust
knots
rain 1hr
in
rain 24hr
in
rain mn
in
humidity
%
barometer
mb
20180116165348 67 32 7.0 12.2 0.00 0.00 0.00 69 1025.9
20180116164317 67 5 7.0 12.2 0.00 0.00 0.00 70 1026.3
20180116163333 67 0 7.0 11.3 0.00 0.00 0.00 69 1026.5
20180116162350 67 9 7.8 11.3 0.00 0.00 0.00 70 1026.5
20180116161317 67 340 7.0 10.4 0.00 0.00 0.00 71 1026.6
20180116160324 67 351 6.1 10.4 0.00 0.00 0.00 70 1026.8
20180116155304 67 0 5.2 10.4 0.00 0.00 0.00 70 1026.8
20180116154254 66 0 6.1 10.4 0.00 0.00 0.00 70 1027.1
20180116153304 66 9 6.1 8.7 0.00 0.00 0.00 71 1027.0
20180116152313 66 355 5.2 9.6 0.00 0.00 0.00 73 1027.0
20180116151305 65 323 6.1 9.6 0.00 0.00 0.00 77 1026.9
20180116150247 62 347 6.1 8.7 0.00 0.00 0.00 84 1026.7
20180116145231 62 320 6.1 8.7 0.00 0.00 0.00 84 1026.6
20180116144156 62 327 6.1 7.8 0.00 0.00 0.00 84 1026.7
20180116143138 61 323 6.1 7.8 0.00 0.00 0.00 84 1026.6
20180116142141 60 321 6.1 7.8 0.00 0.00 0.00 86 1026.5
20180116141133 60 327 7.0 8.7 0.00 0.00 0.00 85 1026.4
20180116140111 60 324 7.0 8.7 0.00 0.00 0.00 85 1026.2
20180116135122 61 324 6.1 8.7 0.00 0.00 0.00 83 1026.2
20180116134050 61 323 7.0 8.7 0.00 0.00 0.00 84 1026.1
20180116133109 61 326 5.2 7.8 0.00 0.00 0.00 86 1026.1
20180116132050 59 336 3.5 7.0 0.00 0.00 0.00 89 1026.0
20180116131051 58 350 4.3 7.0 0.00 0.00 0.00 91 1025.8
20180116130051 57 333 5.2 7.8 0.00 0.00 0.00 91 1025.9
20180116125104 56 329 5.2 7.8 0.00 0.00 0.00 91 1025.8
20180116124046 56 323 2.6 7.0 0.00 0.00 0.00 90 1025.7
20180116123056 56 338 5.2 7.8 0.00 0.00 0.00 89 1025.7
20180116122022 57 355 3.5 7.8 0.00 0.00 0.00 88 1025.6
20180116121003 58 328 4.3 7.8 0.00 0.00 0.00 87 1025.5
20180116115935 59 337 3.5 4.3 0.00 0.00 0.00 85 1025.5
20180116114954 59 324 2.6 5.2 0.00 0.00 0.00 84 1025.2
20180116113928 59 323 1.7 5.2 0.00 0.00 0.00 82 1025.3
20180116112900 59 44 3.5 6.1 0.00 0.00 0.00 83 1025.1
20180116111844 60 318 3.5 6.1 0.00 0.00 0.00 78 1025.0
20180116110833 63 0 2.6 7.0 0.00 0.00 0.00 74 1025.0
20180116105842 63 56 3.5 7.8 0.00 0.00 0.00 73 1025.0
20180116104852 63 76 3.5 7.8 0.00 0.00 0.00 73 1024.8
20180116103902 63 66 4.3 9.6 0.00 0.00 0.00 72 1024.7
20180116102832 63 42 3.5 9.6 0.00 0.00 0.00 73 1024.6
20180116101844 63 53 3.5 9.6 0.00 0.00 0.00 73 1024.6
20180116100854 63 42 4.3 9.6 0.00 0.00 0.00 72 1024.7
20180116095852 63 49 3.5 8.7 0.00 0.00 0.00 72 1024.6
20180116094816 63 53 3.5 7.8 0.00 0.00 0.00 71 1024.7
20180116093748 63 19 3.5 8.7 0.00 0.00 0.00 73 1024.5
20180116092755 63 67 4.3 10.4 0.00 0.00 0.00 72 1024.5
20180116091728 63 31 4.3 10.4 0.00 0.00 0.00 72 1024.4
20180116090734 63 34 3.5 10.4 0.00 0.00 0.00 73 1024.5
20180116085700 63 29 4.3 10.4 0.00 0.00 0.00 72 1024.4
20180116084712 63 66 3.5 8.7 0.00 0.00 0.00 70 1024.3
20180116083653 63 43 4.3 9.6 0.00 0.00 0.00 72 1024.3
20180116082713 63 80 4.3 12.2 0.00 0.00 0.00 70 1024.2
20180116081655 63 101 5.2 13.0 0.00 0.00 0.00 71 1024.2
20180116080659 63 49 4.3 13.0 0.00 0.00 0.00 73 1024.0
20180116075631 63 68 5.2 11.3 0.00 0.00 0.00 72 1024.1
20180116074556 63 49 5.2 9.6 0.00 0.00 0.00 72 1024.1
20180116073558 63 53 6.1 11.3 0.00 0.00 0.00 72 1024.2
20180116072605 63 60 5.2 12.2 0.00 0.00 0.00 73 1024.3
20180116071603 63 49 6.1 12.2 0.00 0.00 0.00 74 1024.4
20180116070611 63 45 6.1 12.2 0.00 0.00 0.00 74 1024.4
20180116065605 63 62 5.2 13.9 0.00 0.00 0.00 72 1024.5
20180116064603 64 32 6.1 13.9 0.00 0.00 0.00 71 1024.6
20180116063538 64 39 5.2 11.3 0.00 0.00 0.00 72 1024.7
20180116062523 64 82 5.2 14.8 0.00 0.00 0.00 73 1024.7
20180116061501 64 46 6.1 14.8 0.00 0.00 0.00 73 1024.7
20180116060510 63 77 5.2 13.0 0.00 0.00 0.00 74 1024.7
20180116055526 63 24 4.3 13.0 0.00 0.00 0.00 73 1024.8
20180116054502 63 63 5.2 12.2 0.00 0.00 0.00 73 1024.9
20180116053451 63 52 4.3 12.2 0.00 0.00 0.00 77 1024.9
20180116052418 59 49 2.6 8.7 0.00 0.00 0.00 89 1025.0
20180116051439 59 0 3.5 8.7 0.00 0.00 0.00 91 1025.1
20180116050407 58 5 3.5 9.6 0.00 0.00 0.00 90 1025.1
20180116045354 57 346 6.1 9.6 0.00 0.00 0.00 90 1025.1
20180116044335 57 347 5.2 9.6 0.00 0.00 0.00 89 1025.4
20180116043314 57 347 6.1 10.4 0.00 0.00 0.00 89 1025.5
20180116042322 56 348 6.1 10.4 0.00 0.00 0.00 89 1025.5
20180116041326 56 350 6.1 10.4 0.00 0.00 0.00 89 1025.6
20180116040257 56 349 7.0 12.2 0.00 0.00 0.00 88 1025.7
20180116035240 56 338 7.8 12.2 0.00 0.00 0.00 88 1025.7
20180116034245 56 343 7.8 13.9 0.00 0.00 0.00 88 1025.8
20180116033223 56 326 7.8 15.6 0.00 0.00 0.00 87 1025.8
20180116032216 56 351 8.7 15.6 0.00 0.00 0.00 87 1025.8
20180116031210 56 355 9.6 13.9 0.00 0.00 0.00 86 1025.9
20180116030229 56 349 9.6 14.8 0.00 0.00 0.00 86 1025.9
20180116025232 56 348 8.7 14.8 0.00 0.00 0.00 86 1026.0
20180116024201 56 348 8.7 14.8 0.00 0.00 0.00 85 1026.0
20180116023158 56 344 8.7 14.8 0.00 0.00 0.00 85 1025.8
20180116022146 56 336 9.6 14.8 0.00 0.00 0.00 84 1025.8
20180116021123 56 11 8.7 14.8 0.00 0.00 0.00 84 1025.8
20180116020105 56 5 9.6 16.5 0.00 0.00 0.00 83 1025.8
20180116015033 56 5 9.6 16.5 0.00 0.00 0.00 83 1025.7
20180116014046 56 355 9.6 15.6 0.00 0.00 0.00 82 1025.6
20180116013027 56 344 10.4 15.6 0.00 0.00 0.00 82 1025.5
20180116011957 56 347 9.6 15.6 0.00 0.00 0.00 82 1025.4
20180116010922 56 338 10.4 14.8 0.00 0.00 0.00 81 1025.4
20180116005940 56 355 9.6 13.9 0.00 0.00 0.00 80 1025.3
20180116004932 56 336 8.7 14.8 0.00 0.00 0.00 80 1025.4
20180116003926 57 340 10.4 15.6 0.00 0.00 0.00 79 1025.3
20180116002850 57 342 10.4 16.5 0.00 0.00 0.00 79 1025.3
20180116001822 57 336 9.6 16.5 0.00 0.00 0.00 78 1025.3
20180116000802 57 317 10.4 16.5 0.00 0.00 0.00 77 1025.2
20180115235804 57 351 10.4 16.5 0.00 0.00 0.00 77 1025.1
20180115234756 57 355 11.3 19.1 0.00 0.00 0.00 77 1024.9
20180115233812 58 25 12.2 19.1 0.00 0.00 0.00 78 1024.8
20180115232831 58 346 11.3 18.2 0.00 0.00 0.00 79 1024.7
20180115231853 58 350 11.3 22.6 0.00 0.00 0.00 79 1024.7
20180115230821 58 15 13.0 22.6 0.00 0.00 0.00 79 1024.7
20180115225843 58 343 11.3 17.4 0.00 0.00 0.00 79 1024.6
20180115224818 59 338 11.3 22.6 0.00 0.00 0.00 79 1024.6
20180115223745 59 355 13.9 22.6 0.00 0.00 0.00 78 1024.4
20180115222723 59 355 13.0 22.6 0.00 0.00 0.00 78 1024.3
20180115221712 59 342 14.8 22.6 0.00 0.00 0.00 78 1024.3
20180115220702 60 355 13.0 20.9 0.00 0.00 0.00 78 1024.2
20180115215634 60 22 13.0 21.7 0.00 0.00 0.00 78 1024.2
20180115214657 60 5 13.0 21.7 0.00 0.00 0.00 78 1024.1
20180115213703 61 338 13.0 20.9 0.00 0.00 0.00 77 1024.2
20180115212709 61 341 13.0 20.9 0.00 0.00 0.00 77 1024.3
20180115211700 61 343 13.9 20.0 0.00 0.00 0.00 77 1024.2
20180115210630 61 311 13.0 22.6 0.00 0.00 0.00 75 1024.3
20180115205635 61 342 13.9 22.6 0.00 0.00 0.00 74 1024.1
20180115204643 62 355 13.0 20.9 0.00 0.00 0.00 74 1023.9
20180115203623 62 333 13.9 21.7 0.00 0.00 0.00 73 1024.0
20180115202620 62 355 13.0 22.6 0.00 0.00 0.00 73 1024.0
20180115201617 62 347 13.9 26.9 0.00 0.00 0.00 72 1023.9
20180115200636 63 9 14.8 26.9 0.00 0.00 0.00 72 1023.7
20180115195635 62 342 14.8 26.9 0.00 0.00 0.00 72 1023.7
20180115194624 61 331 14.8 22.6 0.00 0.00 0.00 72 1023.6
20180115193633 61 9 13.0 23.5 0.00 0.00 0.00 72 1023.7
20180115192627 61 331 13.0 25.2 0.00 0.00 0.00 73 1023.7
20180115191633 61 350 14.8 25.2 0.00 0.00 0.00 74 1023.9
20180115190614 61 342 13.9 20.9 0.00 0.00 0.00 76 1023.9
20180115185614 61 349 13.0 21.7 0.00 0.00 0.00 77 1023.9
20180115184549 61 340 13.9 22.6 0.00 0.00 0.00 76 1023.9
20180115183516 61 5 14.8 23.5 0.00 0.00 0.00 76 1024.0
20180115182503 62 0 13.9 23.5 0.00 0.00 0.00 75 1024.2
20180115181452 62 355 14.8 23.5 0.00 0.00 0.00 76 1024.5
20180115180444 62 344 13.9 23.5 0.00 0.00 0.00 75 1024.6
20180115175437 62 340 14.8 22.6 0.00 0.00 0.00 77 1024.8
20180115174413 62 0 13.9 22.6 0.00 0.00 0.00 77 1025.1
20180115173353 62 331 13.9 24.3 0.00 0.00 0.00 75 1025.2
20180115172332 62 334 13.9 24.3 0.00 0.00 0.00 75 1025.3
20180115171328 63 348 15.6 22.6 0.00 0.00 0.00 73 1025.3
20180115170257 62 344 15.6 24.3 0.00 0.00 0.00 75 1025.6